Location: Unnamed
(23.5608°S, 46.6833°W)
Time: 12:28:41
(UTC-03:00)

VELOX 1 - Pass Details

Date: 30 March 2023
Orbit: 617 x 630 km, 98.4° (Epoch: 29 May)

Event Time Altitude Azimuth Distance (km) Brightness Sun altitude
Rises 18:33:19 0° 347° (NNW) 2,878 ? -6.6°
Reaches altitude 10° 18:35:47 10° 334° (NNW) 1,982 ? -7.2°
Maximum altitude 18:39:20 25° 278° (W) 1,271 ? -8.0°
Drops below altitude 10° 18:42:56 10° 223° (SW) 2,010 ? -8.8°
Sets 18:45:28 0° 209° (SSW) 2,928 ? -9.4°
